Change the Weather History Date:

Friday, October 25, 2013

  Actual Average Record
Temperature  
Mean Temperature 48 °F -  
Max Temperature 52 °F 42 °F 55 °F (2003)
Min Temperature 44 °F 33 °F 24 °F (1971)
Degree Days  
Heating Degree Days 18    
Moisture  
Dew Point 43 °F    
Average Humidity 80    
Maximum Humidity 93    
Minimum Humidity 74    
Precipitation  
Precipitation 0.00 in - - ()
Sea Level Pressure  
Sea Level Pressure 30.05 in    
Wind  
Wind Speed 16 mph (SSW)    
Max Wind Speed 30 mph    
Max Gust Speed 37 mph    
Visibility 10 miles    
Events Rain    
Averages and records for this station are not official NWS values.
T = Trace of Precipitation, MM = Missing Value Source: NWS Daily Summary

Daily Weather History Graph

Daily Weather History Graph

Search for Another Location

Airport or City:

Trip Planner

Search our weather history database for the weather conditions in past years. The results will help you decide how hot, cold, wet, or windy it might be!

Date:

Astronomy

Oct. 25, 2013 Rise Set
Actual Time 8:04 AM AKDT 5:24 PM AKDT
Civil Twilight 7:21 AM AKDT 6:07 PM AKDT
Nautical Twilight 6:33 AM AKDT 6:55 PM AKDT
Astronomical Twilight 5:46 AM AKDT 7:42 PM AKDT
Moon 10:31 PM AKDT (10/25) 2:13 PM AKDT (10/25)
Length of Visible Light 10h 45m
Length of Day
9h 19m
Waning Gibbous, 61% of the Moon is Illuminated
Oct 25
Waning Gibbous
Oct 26
Last Quarter
Nov 3
New
Nov 9
First Quarter
Nov 17
Full

Hourly Weather History & Observations

Time (AKDT) Temp. Windchill Dew Point Humidity Pressure Visibility Wind Dir Wind Speed Gust Speed Precip Events Conditions
12:10 AM 44.6 °F - 42.8 °F 93% 30.10 in 10.0 mi Calm Calm - N/A   Overcast
12:53 AM 48.0 °F - 42.1 °F 80% 30.10 in 10.0 mi SSW 16.1 mph - N/A   Overcast
1:53 AM 48.0 °F - 41.0 °F 77% 30.09 in 10.0 mi SSW 15.0 mph - N/A   Overcast
2:53 AM 48.0 °F - 41.0 °F 77% 30.10 in 10.0 mi SSW 12.7 mph - N/A   Scattered Clouds
3:53 AM 46.9 °F - 41.0 °F 80% 30.08 in 10.0 mi SSW 12.7 mph 21.9 mph N/A   Scattered Clouds
4:53 AM 48.0 °F - 41.0 °F 77% 30.09 in 10.0 mi SSW 13.8 mph - N/A   Overcast
5:53 AM 48.9 °F - 41.0 °F 74% 30.08 in 10.0 mi SSW 15.0 mph - N/A   Overcast
6:53 AM 48.0 °F - 42.1 °F 80% 30.06 in 10.0 mi SSW 12.7 mph - N/A   Overcast
7:53 AM 46.9 °F - 42.1 °F 83% 30.08 in 8.0 mi SSW 16.1 mph - N/A   Overcast
8:53 AM 46.9 °F - 42.1 °F 83% 30.04 in 9.0 mi SSW 19.6 mph - N/A   Overcast
9:09 AM 46.4 °F 39.2 °F 42.8 °F 87% 30.04 in 9.0 mi SSW 18.4 mph 26.5 mph N/A   Overcast
9:53 AM 48.0 °F - 43.0 °F 83% 30.05 in 10.0 mi SSW 21.9 mph 27.6 mph N/A   Overcast
10:53 AM 48.9 °F - 44.1 °F 83% 30.05 in 10.0 mi SSW 20.7 mph 27.6 mph N/A   Overcast
11:40 AM 48.2 °F - 44.6 °F 87% 30.04 in 10.0 mi SSW 21.9 mph 31.1 mph N/A   Overcast
11:53 AM 48.9 °F - 44.1 °F 83% 30.04 in 10.0 mi SSW 21.9 mph 28.8 mph N/A   Overcast
12:53 PM 50.0 °F - 45.0 °F 83% 30.05 in 9.0 mi SSW 20.7 mph 29.9 mph N/A   Overcast
1:16 PM 50.0 °F - 44.6 °F 82% 30.04 in 10.0 mi SSW 21.9 mph 29.9 mph 0.00 in   Overcast
1:25 PM 50.0 °F - 44.6 °F 82% 30.03 in 10.0 mi SSW 20.7 mph 28.8 mph 0.00 in   Overcast
1:41 PM 50.0 °F - 44.6 °F 82% 30.04 in 10.0 mi SSW 20.7 mph 32.2 mph 0.00 in   Overcast
1:53 PM 50.0 °F - 45.0 °F 83% 30.03 in 10.0 mi SSW 21.9 mph 29.9 mph 0.00 in Rain Light Rain
2:11 PM 50.0 °F - 44.6 °F 82% 30.03 in 10.0 mi SSW 21.9 mph 32.2 mph 0.00 in   Overcast
2:53 PM 51.1 °F - 45.0 °F 80% 30.04 in 10.0 mi SSW 24.2 mph 35.7 mph 0.00 in   Overcast
3:53 PM 51.1 °F - 45.0 °F 80% 30.04 in 10.0 mi SSW 25.3 mph 34.5 mph N/A   Overcast
4:53 PM 51.1 °F - 45.0 °F 80% 30.01 in 10.0 mi SSW 27.6 mph 33.4 mph N/A   Overcast
5:53 PM 51.1 °F - 45.0 °F 80% 30.01 in 10.0 mi SSW 29.9 mph 36.8 mph N/A   Mostly Cloudy
6:53 PM 51.1 °F - 44.1 °F 77% 30.01 in 10.0 mi SSW 25.3 mph 36.8 mph N/A   Mostly Cloudy
7:53 PM 51.1 °F - 44.1 °F 77% 30.01 in 10.0 mi SSW 24.2 mph 32.2 mph N/A   Overcast
8:53 PM 51.1 °F - 43.0 °F 74% 30.01 in 10.0 mi SSW 20.7 mph 29.9 mph N/A   Overcast
9:53 PM 51.1 °F - 43.0 °F 74% 30.03 in 10.0 mi SSW 15.0 mph 27.6 mph N/A   Overcast
10:53 PM 51.1 °F - 43.0 °F 74% 30.03 in 10.0 mi SSW 17.3 mph 29.9 mph N/A   Overcast
11:53 PM 51.1 °F - 43.0 °F 74% 30.02 in 10.0 mi SSW 23.0 mph 29.9 mph N/A   Overcast